Home   Weather   Nicosia   Past weeks

Flag for Cyprus Past Weather in Nicosia, Cyprus — Yesterday and Last 2 Weeks

Now
59 °F

Clear.


Feels Like: 56 °F
Forecast: 56 / 83 °F
Wind: 14 mph from Northwest

Location: Ercan

Current Time: Apr 28, 2017 at 5:26:40 am

Latest Report: Apr 28, 2017 at 4:20 am


Visibility: 10 mi

Pressure: 29.89 "Hg

Humidity: 39%

Dew Point: 34 °F

Location of NicosiaLocation

Past Weather in Nicosia — Graph

°F

Nicosia Temperature Yesterday

Maximum temperature yesterday: 86 °F (at 1:50 pm)
Minimum temperature yesterday: 54 °F (at 2:50 am)
Average temperature yesterday: 70 °F

High & Low Weather Summary for the Past Weeks

 TemperatureHumidityPressure
High88 °F (Apr 22, 2:20 pm)100% (Apr 15, 5:30 am)30.12 "Hg (Apr 15, 5:30 am)
Low50 °F (Apr 20, 6:20 am)10% (Apr 27, 12:50 pm)29.65 "Hg (Apr 13, 4:50 pm)
Average64 °F63%29.95 "Hg
* Reported Apr 13 3:20 am — Apr 28 3:50 am, Nicosia, Weather by CustomWeather, © 2017

Note: Actual official high and low records may vary slightly from our data, if they occured in-between our weather recording intervals... More about our weather records

Advertising

Nicosia Weather History for the Previous 24 Hours

Scroll right to see more
 ConditionsComfort  
Time TempWeatherWind HumidityBarometerVisibility
3:50 am
Fri, Apr 28
59 °FClear.15 mph42%29.89 "Hg10 mi
3:20 am59 °FClear.15 mph42%29.92 "Hg10 mi
2:50 am61 °FClear.15 mph39%29.92 "Hg10 mi
2:20 am61 °FClear.13 mph42%29.92 "Hg10 mi
1:50 am61 °FClear.14 mph48%29.92 "Hg10 mi
1:20 am61 °FClear.14 mph52%29.92 "Hg10 mi
12:50 am61 °FClear.13 mph55%29.95 "Hg10 mi
12:20 am61 °FClear.13 mph59%29.95 "Hg10 mi
11:50 pm
Thu, Apr 27
63 °FClear.10 mph52%29.95 "Hg10 mi
11:20 pm63 °FClear.8 mph45%29.95 "Hg10 mi
10:50 pm64 °FClear.10 mph43%29.95 "Hg10 mi
10:20 pm63 °FClear.10 mph49%29.95 "Hg10 mi
9:50 pm64 °FClear.12 mph43%29.95 "Hg10 mi
9:20 pm66 °FClear.12 mph37%29.95 "Hg10 mi
8:50 pm70 °FClear.9 mph29%29.95 "Hg10 mi
8:20 pm70 °FClear.9 mph31%29.92 "Hg10 mi
7:50 pm73 °FClear.8 mph31%29.92 "Hg10 mi
7:20 pm77 °FPassing clouds.6 mph21%29.92 "HgN/A
6:50 pm81 °FPassing clouds.8 mph17%29.92 "HgN/A
6:20 pm81 °FSunny.8 mph12%29.92 "Hg10 mi
5:50 pm82 °FSunny.12 mph11%29.89 "Hg10 mi
5:20 pm84 °FPassing clouds.10 mph10%29.89 "HgN/A
4:50 pm84 °FSunny.3 mph11%29.89 "Hg10 mi
4:20 pm84 °FPassing clouds.7 mph10%29.89 "HgN/A
3:50 pm84 °FSunny.13 mph10%29.92 "Hg10 mi
3:20 pm86 °FPassing clouds.12 mph10%29.92 "HgN/A
2:50 pm86 °FSunny.8 mph11%29.92 "Hg10 mi
2:20 pm84 °FPassing clouds.5 mph11%29.92 "HgN/A
1:50 pm86 °FSunny.7 mph11%29.95 "Hg10 mi
1:20 pm84 °FPassing clouds.7 mph11%29.95 "HgN/A
12:50 pm84 °FPassing clouds.7 mph10%29.95 "HgN/A
12:20 pm84 °FPassing clouds.7 mph11%29.95 "HgN/A
11:50 am82 °FPassing clouds.8 mph11%29.95 "HgN/A
11:20 am82 °FPassing clouds.8 mph12%29.95 "HgN/A
10:50 am81 °FSunny.No wind14%29.95 "Hg10 mi
9:50 am77 °FSunny.13 mph15%29.95 "Hg10 mi
9:20 am75 °FSunny.15 mph16%29.95 "Hg10 mi
8:50 am70 °FSunny.13 mph21%29.95 "Hg10 mi
8:20 am66 °FSunny.13 mph22%29.95 "Hg10 mi
7:50 am63 °FSunny.15 mph30%29.95 "Hg10 mi
7:20 am59 °FSunny.14 mph31%29.95 "Hg10 mi
6:50 am57 °FSunny.14 mph33%29.95 "Hg10 mi
6:20 am55 °FSunny.13 mph41%29.95 "Hg10 mi
5:50 am55 °FClear.14 mph44%29.95 "Hg10 mi
5:20 am55 °FClear.13 mph44%29.95 "Hg10 mi
Weather by CustomWeather, © 2017

See weather overviewHow to use our weather pages